Showing default

COSMOS 2433 (GLONASS), 32275

Orbit data source: Space-Track

COSMOS 2433 (GLONASS), 32275 is a Commonwealth of Independent States-origin payload satellite in MEO that was launched on Fri, 26 Oct 2007 UTC via a PROTON-K/DM-2 launch vehicle from the Tyuratam Missile And Space Complex (TTMTR). Payload-class satellites include a variety of spacecraft equipped with specific instruments for various scientific and technological missions. These include communications satellites like Starlink; space stations such as the ISS; scientific satellites like the Hubble; Earth observation satellites from companies like Planet Labs, Umbra, and HawkEye 360; GPS; miniature CubeSats for education and research; and military/defense satellites.

Loading next visibility...
Identifier
32275, 2007-052A
Orbit
MEO
Last TLE update
15 hours ago
Origin
Manufacturer
Resehetnev ISS
Mission
On reserve Defense Navigation
Bus & Motor
URAGAN, Unknown motor
Mass
1,450 kg wet, ~1,200 kg dry
Launch date (UTC)
2007-10-26 (18 years ago)
Launch vehicle
PROTON-K/DM-2
Launch site
Tyuratam Missile And Space Complex (TTMTR)
Object type
Payload
Rocket body
Debris
Shape & HBR
Cyl + 1 Ant + 2 Pan, 7.8 m
Radar Cross Section
8.467 m², Large (>1 m²)

Expand to show TLE details & history

TLE from 15 hours ago
0 COSMOS 2433 (GLONASS)
1 32275U 07052A   25186.13390736 -.00000077  00000-0  00000+0 0  9991
2 32275  65.7678 327.5936 0002803 202.3441 157.6411  2.13104258137703
Epoch: 2025-07-05T03:12Z
TLE epoch observation values (Epoch: 2025-07-05T03:12:49.595Z)
Latitude
-0.00003°
Longitude
-4.00337°
Altitude
19,136.892 km
Speed
3.952 km/s
True Right ascension
21h 50m 19s
True Declination
0° 00' 00"
Sunlit
Object was in daylight at epoch
Visualization orbit readout
Latitude
60.29275°
Longitude
124.0116°
Altitude
19,139.821 km
Speed
3.954 km/s
Apparent Right ascension
06h 44m 47s
Apparent Declination
66° 30' 38"
Sunlit
Object is in daylight
Visualization observer readout
Local Sidereal Time
05:46:21
Azimuth
12.436° NNE
Elevation
62.167°
Doppler factor
1
Orbital elements
Apogee altitude
19,136.446 km
Perigee altitude
19,122.146 km
Semi-major axis
25,507.433 km
Eccentricity
0.00028
Inclination
65.7678°
RAAN
327.5936°
Arg. of periapsis
202.3441°
True anomaly
Unknown
Mean anomaly
157.6411°
Eccentric anomaly
Unknown
Mean motion
0.53277 °/min
Orbital period
675.71 mins
BSTAR
0
Loading maneuver chart data...
Loading SW <> Apogee altitude chart data...
Loading historical data...
Loading historical data...
Loading historical data...
Loading historical data...
Loading historical data...
Loading historical data...
Loading historical data...

COSMOS 2433 (GLONASS) Visibility forecast

Observer location: undefined°, undefined°

Span
Click to sort rows by Start time (UTC) header in descending order
Start Az.
Max El. time (UTC)
Max El. Az.
Max El.
End time (UTC)
End Az.
178 mins2025-07-05 17:50:54.822Z12.45° NNE2025-07-05 18:20:54.822Z51.58° ENE42.427°2025-07-05 20:48:54.822Z153.032° SSE
309 mins2025-07-06 12:41:54.822Z232.401° WSW2025-07-06 15:46:54.822Z358.463° N39.703°2025-07-06 17:50:54.822Z97.477° ESE
|